Вернуться в каталог

STARLINK-3204

АктивенСвязьVLEO
NORAD 49759·PAYLOAD·🇺🇸 United States

Запущен Dec 2, 2021 с Cape Canaveral Space Force Station

Loading…

Ближайшие Пролёты (ближайшие 24 часа)

TLE

СвежийSource: CelesTrak SupGP

Эпоха: Sep 15, 2026, 01:56 UTC

1 49759C 21115AM  26258.08104167 -.00350150  00000+0 -10222-1 0  2585
2 49759  53.1590 354.7044 0001132  92.8708 129.1526 15.34943547    19

Отслеживайте STARLINK-3204 в реальном времени с AllMySat

Download on the App Store